THY1081 LTFM-LYBE

Flight info

Callsign THY1081
Flight time 1h 17m
Altitude 38000
Route VADEN N618 BAKLO DCT XANEX DCT BESLI DCT UTEKA DCT OSVIX
Aircraft A321/M-SDE3FGHIRWY/LB1

Departure

Time 2026-02-21 06:08
Airport İstanbul Airport (LTFM)

Arrival

Time 2026-02-21 07:25
Airport Belgrade Nikola Tesla Airport (LYBE)
Time Latitude Longitude Altitude Speed Heading
2026-02-21 05:52 41.26602 28.74995 333 ft 0 kts 290°
2026-02-21 06:01 41.26601 28.74997 334 ft 1 kts 290°
2026-02-21 06:01 41.26596 28.75017 329 ft 3 kts 291°
2026-02-21 06:01 41.26588 28.75042 330 ft 3 kts 292°
2026-02-21 06:01 41.26580 28.75066 331 ft 3 kts 296°
2026-02-21 06:02 41.26571 28.75090 332 ft 3 kts 307°
2026-02-21 06:02 41.26558 28.75108 330 ft 3 kts 339°
2026-02-21 06:02 41.26547 28.75111 330 ft 1 kts 17°
2026-02-21 06:04 41.26548 28.75112 330 ft 2 kts 17°
2026-02-21 06:04 41.26580 28.75124 329 ft 7 kts 17°
2026-02-21 06:04 41.26624 28.75175 332 ft 11 kts 79°
2026-02-21 06:05 41.26627 28.75296 334 ft 14 kts 89°
2026-02-21 06:05 41.26576 28.75384 333 ft 14 kts 175°
2026-02-21 06:05 41.26474 28.75387 331 ft 15 kts 179°
2026-02-21 06:05 41.26363 28.75389 334 ft 17 kts 179°
2026-02-21 06:06 41.26262 28.75401 331 ft 12 kts 150°
2026-02-21 06:06 41.26249 28.75492 334 ft 5 kts 88°
2026-02-21 06:06 41.26250 28.75549 334 ft 7 kts 88°
2026-02-21 06:06 41.26251 28.75623 334 ft 9 kts 89°
2026-02-21 06:07 41.26292 28.75665 331 ft 9 kts
2026-02-21 06:07 41.26371 28.75664 333 ft 19 kts 359°
2026-02-21 06:07 41.26761 28.75656 331 ft 94 kts 359°
2026-02-21 06:07 41.27639 28.75641 358 ft 153 kts 355°
2026-02-21 06:08 41.28710 28.75632 1076 ft 152 kts 357°
2026-02-21 06:08 41.29794 28.75683 1699 ft 164 kts 18°
2026-02-21 06:08 41.30769 28.76539 2010 ft 177 kts 47°
2026-02-21 06:08 41.31733 28.77718 2259 ft 201 kts 42°
2026-02-21 06:09 41.32973 28.78804 2490 ft 226 kts 34°
2026-02-21 06:09 41.34441 28.79879 2831 ft 249 kts 31°
2026-02-21 06:09 41.35987 28.80937 3722 ft 251 kts 30°
2026-02-21 06:09 41.37566 28.81982 4565 ft 256 kts 25°
2026-02-21 06:10 41.39344 28.82460 5285 ft 271 kts
2026-02-21 06:10 41.41253 28.82262 6035 ft 277 kts 356°
2026-02-21 06:10 41.43192 28.82008 6838 ft 282 kts 356°
2026-02-21 06:10 41.45161 28.81744 7635 ft 286 kts 355°
2026-02-21 06:11 41.47157 28.81480 8450 ft 290 kts 355°
2026-02-21 06:11 41.49182 28.81220 9245 ft 294 kts 355°
2026-02-21 06:11 41.51233 28.80966 10071 ft 298 kts 354°
2026-02-21 06:11 41.53355 28.80703 10445 ft 317 kts 354°
2026-02-21 06:12 41.55633 28.80418 10706 ft 338 kts 353°
2026-02-21 06:12 41.57952 28.79748 11263 ft 346 kts 339°
2026-02-21 06:12 41.60103 28.78299 11942 ft 348 kts 324°
2026-02-21 06:12 41.61922 28.76160 12647 ft 350 kts 308°
2026-02-21 06:13 41.63256 28.73507 13319 ft 350 kts 293°
2026-02-21 06:13 41.64189 28.70448 14022 ft 352 kts 288°
2026-02-21 06:13 41.65077 28.67383 14673 ft 355 kts 288°
2026-02-21 06:13 41.65977 28.64291 15337 ft 358 kts 288°
2026-02-21 06:14 41.66737 28.61123 15997 ft 358 kts 279°
2026-02-21 06:14 41.67045 28.57821 16662 ft 358 kts 268°
2026-02-21 06:14 41.67074 28.54483 17356 ft 360 kts 267°
2026-02-21 06:14 41.67102 28.51165 18013 ft 363 kts 268°
2026-02-21 06:15 41.67135 28.47771 18637 ft 367 kts 268°
2026-02-21 06:15 41.67170 28.44348 19211 ft 370 kts 268°
2026-02-21 06:15 41.67209 28.40899 19792 ft 373 kts 268°
2026-02-21 06:15 41.67250 28.37421 20376 ft 376 kts 268°
2026-02-21 06:16 41.67289 28.33914 20965 ft 379 kts 267°
2026-02-21 06:16 41.67326 28.30378 21534 ft 382 kts 268°
2026-02-21 06:16 41.67361 28.26810 22104 ft 386 kts 268°
2026-02-21 06:16 41.67396 28.23209 22683 ft 389 kts 268°
2026-02-21 06:17 41.67429 28.19583 23248 ft 392 kts 268°
2026-02-21 06:17 41.67458 28.15924 23778 ft 395 kts 268°
2026-02-21 06:17 41.67486 28.12241 24235 ft 397 kts 268°
2026-02-21 06:17 41.67525 28.08532 24689 ft 400 kts 270°
2026-02-21 06:18 41.67894 28.04822 25142 ft 406 kts 280°
2026-02-21 06:18 41.68768 28.01200 25585 ft 413 kts 290°
2026-02-21 06:18 41.70133 27.97793 26022 ft 419 kts 300°
2026-02-21 06:18 41.71737 27.94528 26468 ft 421 kts 300°
2026-02-21 06:19 41.73342 27.91239 26893 ft 424 kts 300°
2026-02-21 06:19 41.74949 27.87918 27320 ft 426 kts 300°
2026-02-21 06:19 41.76560 27.84563 27738 ft 429 kts 300°
2026-02-21 06:19 41.78173 27.81192 28162 ft 431 kts 300°
2026-02-21 06:20 41.79799 27.77798 28575 ft 433 kts 300°
2026-02-21 06:20 41.81431 27.74391 28975 ft 436 kts 300°
2026-02-21 06:20 41.83075 27.70962 29385 ft 438 kts 300°
2026-02-21 06:20 41.84731 27.67509 29761 ft 442 kts 300°
2026-02-21 06:21 41.86395 27.64038 30128 ft 444 kts 300°
2026-02-21 06:21 41.88073 27.60535 30451 ft 447 kts 300°
2026-02-21 06:21 41.89756 27.57017 30770 ft 449 kts 299°
2026-02-21 06:21 41.91449 27.53476 31078 ft 452 kts 299°
2026-02-21 06:22 41.93146 27.49917 31392 ft 454 kts 299°
2026-02-21 06:22 41.94850 27.46332 31724 ft 456 kts 298°
2026-02-21 06:22 41.96557 27.42740 32156 ft 456 kts 298°
2026-02-21 06:22 41.98260 27.39158 32587 ft 455 kts 298°
2026-02-21 06:23 41.99964 27.35577 33023 ft 454 kts 298°
2026-02-21 06:23 42.01663 27.32001 33438 ft 453 kts 298°
2026-02-21 06:23 42.03356 27.28424 33831 ft 453 kts 298°
2026-02-21 06:23 42.05041 27.24851 34218 ft 452 kts 298°
2026-02-21 06:24 42.06782 27.21387 34545 ft 455 kts 303°
2026-02-21 06:24 42.08885 27.18111 34887 ft 457 kts 308°
2026-02-21 06:24 42.11011 27.14933 35208 ft 456 kts 308°
2026-02-21 06:24 42.13131 27.11761 35530 ft 456 kts 308°
2026-02-21 06:25 42.15218 27.08627 35831 ft 455 kts 307°
2026-02-21 06:25 42.17356 27.05410 36149 ft 455 kts 307°
2026-02-21 06:25 42.19435 27.02274 36447 ft 454 kts 307°
2026-02-21 06:25 42.21566 26.99055 36744 ft 454 kts 307°
2026-02-21 06:26 42.23638 26.95919 37033 ft 454 kts 307°
2026-02-21 06:26 42.25736 26.92741 37299 ft 454 kts 307°
2026-02-21 06:26 42.27839 26.89557 37539 ft 454 kts 307°
2026-02-21 06:26 42.29937 26.86377 37781 ft 453 kts 307°
2026-02-21 06:27 42.32033 26.83198 38017 ft 453 kts 307°
2026-02-21 06:27 42.34134 26.80013 38149 ft 454 kts 307°
2026-02-21 06:27 42.38329 26.73630 38186 ft 454 kts 307°
2026-02-21 06:28 42.42515 26.67242 38169 ft 454 kts 307°
2026-02-21 06:28 42.46697 26.60846 38171 ft 454 kts 307°
2026-02-21 06:29 42.50883 26.54440 38169 ft 454 kts 307°
2026-02-21 06:29 42.54815 26.47811 38182 ft 448 kts 296°
2026-02-21 06:30 42.57775 26.40406 38166 ft 447 kts 294°
2026-02-21 06:30 42.60706 26.32975 38170 ft 447 kts 294°
2026-02-21 06:31 42.63645 26.25525 38186 ft 448 kts 294°
2026-02-21 06:31 42.66581 26.18059 38203 ft 449 kts 294°
2026-02-21 06:32 42.69520 26.10566 38218 ft 450 kts 294°
2026-02-21 06:32 42.72461 26.03052 38217 ft 450 kts 294°
2026-02-21 06:33 42.75397 25.95529 38234 ft 451 kts 294°
2026-02-21 06:33 42.78331 25.87988 38256 ft 451 kts 294°
2026-02-21 06:34 42.81260 25.80441 38252 ft 451 kts 294°
2026-02-21 06:34 42.84183 25.72874 38263 ft 451 kts 294°
2026-02-21 06:35 42.87107 25.65305 38281 ft 451 kts 294°
2026-02-21 06:35 42.90018 25.57730 38284 ft 451 kts 294°
2026-02-21 06:36 42.92927 25.50147 38291 ft 451 kts 294°
2026-02-21 06:36 42.95835 25.42557 38292 ft 451 kts 294°
2026-02-21 06:37 42.98736 25.34962 38296 ft 451 kts 294°
2026-02-21 06:37 43.01630 25.27354 38293 ft 451 kts 294°
2026-02-21 06:38 43.04515 25.19753 38288 ft 450 kts 294°
2026-02-21 06:38 43.07401 25.12143 38289 ft 450 kts 293°
2026-02-21 06:39 43.10276 25.04532 38308 ft 451 kts 294°
2026-02-21 06:39 43.13074 24.96874 38311 ft 448 kts 288°
2026-02-21 06:40 43.15397 24.88971 38309 ft 447 kts 288°
2026-02-21 06:40 43.17708 24.81127 38305 ft 447 kts 288°
2026-02-21 06:41 43.20039 24.73216 38320 ft 447 kts 288°
2026-02-21 06:41 43.22360 24.65302 38313 ft 448 kts 288°
2026-02-21 06:42 43.24671 24.57381 38314 ft 448 kts 288°
2026-02-21 06:42 43.26982 24.49442 38312 ft 448 kts 288°
2026-02-21 06:43 43.29281 24.41504 38327 ft 448 kts 288°
2026-02-21 06:43 43.31189 24.34896 38321 ft 447 kts 288°
2026-02-21 06:44 43.33479 24.26955 38315 ft 447 kts 288°
2026-02-21 06:44 43.35768 24.19008 38317 ft 447 kts 288°
2026-02-21 06:45 43.38048 24.11045 38325 ft 448 kts 288°
2026-02-21 06:45 43.40322 24.03073 38321 ft 448 kts 289°
2026-02-21 06:46 43.42746 23.95170 38316 ft 449 kts 291°
2026-02-21 06:46 43.45317 23.87335 38321 ft 449 kts 291°
2026-02-21 06:47 43.47875 23.79474 38332 ft 450 kts 291°
2026-02-21 06:47 43.50386 23.71592 38324 ft 450 kts 291°
2026-02-21 06:48 43.52880 23.63677 38321 ft 450 kts 291°
2026-02-21 06:48 43.55366 23.55763 38318 ft 450 kts 291°
2026-02-21 06:49 43.57851 23.47847 38331 ft 450 kts 291°
2026-02-21 06:49 43.60334 23.39922 38325 ft 450 kts 291°
2026-02-21 06:50 43.62806 23.32006 38325 ft 449 kts 291°
2026-02-21 06:50 43.65273 23.24081 38321 ft 449 kts 291°
2026-02-21 06:51 43.67739 23.16148 38328 ft 449 kts 291°
2026-02-21 06:51 43.70193 23.08212 38331 ft 449 kts 291°
2026-02-21 06:52 43.72627 23.00320 38326 ft 449 kts 291°
2026-02-21 06:52 43.75071 22.92371 38219 ft 450 kts 291°
2026-02-21 06:53 43.76292 22.88395 37953 ft 448 kts 291°
2026-02-21 06:53 43.77509 22.84430 37689 ft 448 kts 291°
2026-02-21 06:53 43.78725 22.80461 37421 ft 448 kts 291°
2026-02-21 06:53 43.79937 22.76493 37165 ft 447 kts 291°
2026-02-21 06:54 43.81143 22.72530 36639 ft 447 kts 291°
2026-02-21 06:54 43.82348 22.68560 36094 ft 447 kts 291°
2026-02-21 06:54 43.83551 22.64597 35578 ft 446 kts 291°
2026-02-21 06:54 43.84754 22.60647 35069 ft 445 kts 291°
2026-02-21 06:55 43.85952 22.56709 34601 ft 443 kts 291°
2026-02-21 06:55 43.87143 22.52784 34075 ft 441 kts 291°
2026-02-21 06:55 43.88322 22.48882 33577 ft 437 kts 290°
2026-02-21 06:55 43.89490 22.45007 33101 ft 433 kts 290°
2026-02-21 06:56 43.90646 22.41169 32605 ft 430 kts 289°
2026-02-21 06:56 43.91821 22.37377 32126 ft 428 kts 290°
2026-02-21 06:56 43.93101 22.33656 31649 ft 426 kts 292°
2026-02-21 06:56 43.94448 22.30011 31164 ft 425 kts 292°
2026-02-21 06:57 43.95829 22.26400 30717 ft 423 kts 292°
2026-02-21 06:57 43.97209 22.22796 30203 ft 422 kts 291°
2026-02-21 06:57 43.98566 22.19205 29741 ft 419 kts 291°
2026-02-21 06:57 43.99898 22.15623 29279 ft 416 kts 291°
2026-02-21 06:58 44.01208 22.12050 28848 ft 414 kts 291°
2026-02-21 06:58 44.03790 22.04943 27979 ft 410 kts 291°
2026-02-21 06:58 44.05067 22.01413 27559 ft 409 kts 291°
2026-02-21 06:59 44.06341 21.97888 27135 ft 407 kts 292°
2026-02-21 06:59 44.07610 21.94376 26719 ft 406 kts 291°
2026-02-21 06:59 44.08877 21.90868 26304 ft 405 kts 291°
2026-02-21 06:59 44.10137 21.87377 25872 ft 403 kts 292°
2026-02-21 07:00 44.11394 21.83889 25441 ft 402 kts 292°
2026-02-21 07:00 44.12647 21.80413 25013 ft 402 kts 292°
2026-02-21 07:00 44.13901 21.76942 24560 ft 402 kts 292°
2026-02-21 07:00 44.15154 21.73468 24115 ft 401 kts 293°
2026-02-21 07:01 44.16402 21.69991 23598 ft 401 kts 293°
2026-02-21 07:01 44.17642 21.66523 23143 ft 399 kts 294°
2026-02-21 07:01 44.18875 21.63076 22648 ft 397 kts 295°
2026-02-21 07:01 44.20105 21.59643 22189 ft 394 kts 295°
2026-02-21 07:02 44.21322 21.56243 21744 ft 392 kts 295°
2026-02-21 07:02 44.22514 21.52907 21361 ft 387 kts 295°
2026-02-21 07:02 44.23712 21.49547 20891 ft 385 kts 295°
2026-02-21 07:02 44.24899 21.46208 20377 ft 384 kts 296°
2026-02-21 07:03 44.26073 21.42899 20004 ft 379 kts 296°
2026-02-21 07:03 44.27244 21.39596 19554 ft 376 kts 296°
2026-02-21 07:03 44.28395 21.36352 19171 ft 372 kts 296°
2026-02-21 07:03 44.29542 21.33118 18711 ft 371 kts 296°
2026-02-21 07:04 44.30681 21.29902 18229 ft 367 kts 296°
2026-02-21 07:04 44.31797 21.26737 17581 ft 360 kts 295°
2026-02-21 07:04 44.32609 21.23506 17158 ft 346 kts 281°
2026-02-21 07:04 44.32939 21.20248 16824 ft 335 kts 276°
2026-02-21 07:05 44.33201 21.17024 16472 ft 332 kts 276°
2026-02-21 07:05 44.33466 21.13838 16127 ft 329 kts 276°
2026-02-21 07:05 44.33735 21.10671 15784 ft 328 kts 276°
2026-02-21 07:05 44.34003 21.07518 15442 ft 326 kts 276°
2026-02-21 07:06 44.34266 21.04388 15102 ft 323 kts 276°
2026-02-21 07:06 44.34527 21.01278 14764 ft 322 kts 276°
2026-02-21 07:06 44.34783 20.98187 14430 ft 319 kts 276°
2026-02-21 07:06 44.35036 20.95120 14089 ft 317 kts 276°
2026-02-21 07:07 44.35288 20.92078 13741 ft 314 kts 276°
2026-02-21 07:07 44.35536 20.89060 13410 ft 311 kts 276°
2026-02-21 07:07 44.35781 20.86060 13085 ft 310 kts 276°
2026-02-21 07:07 44.36024 20.83076 12760 ft 309 kts 276°
2026-02-21 07:08 44.36465 20.80158 12436 ft 306 kts 289°
2026-02-21 07:08 44.37356 20.77466 12121 ft 305 kts 302°
2026-02-21 07:08 44.38497 20.74973 11801 ft 304 kts 303°
2026-02-21 07:08 44.39627 20.72490 11482 ft 302 kts 303°
2026-02-21 07:09 44.40748 20.70015 11155 ft 300 kts 303°
2026-02-21 07:09 44.41861 20.67554 10855 ft 299 kts 303°
2026-02-21 07:09 44.42968 20.65102 10542 ft 297 kts 302°
2026-02-21 07:09 44.44059 20.62678 10289 ft 292 kts 302°
2026-02-21 07:10 44.45132 20.60291 10107 ft 288 kts 302°
2026-02-21 07:10 44.46192 20.57930 9867 ft 283 kts 302°
2026-02-21 07:10 44.47222 20.55630 9723 ft 274 kts 302°
2026-02-21 07:10 44.48215 20.53405 9551 ft 267 kts 302°
2026-02-21 07:11 44.49197 20.51211 9154 ft 264 kts 302°
2026-02-21 07:11 44.50162 20.49061 8852 ft 260 kts 303°
2026-02-21 07:11 44.51341 20.47179 8575 ft 256 kts 327°
2026-02-21 07:11 44.52971 20.46302 8318 ft 252 kts 356°
2026-02-21 07:12 44.54683 20.46605 8034 ft 249 kts 24°
2026-02-21 07:12 44.56183 20.47811 7764 ft 250 kts 33°
2026-02-21 07:12 44.57652 20.49109 7476 ft 249 kts 33°
2026-02-21 07:12 44.58943 20.50682 7190 ft 246 kts 57°
2026-02-21 07:13 44.59509 20.52900 6933 ft 243 kts 87°
2026-02-21 07:13 44.59198 20.55213 6850 ft 246 kts 116°
2026-02-21 07:13 44.58311 20.57274 6747 ft 248 kts 121°
2026-02-21 07:13 44.57388 20.59309 6638 ft 247 kts 121°
2026-02-21 07:14 44.56465 20.61345 6523 ft 247 kts 121°
2026-02-21 07:14 44.55549 20.63377 6414 ft 247 kts 121°
2026-02-21 07:14 44.54635 20.65412 6292 ft 247 kts 121°
2026-02-21 07:14 44.53720 20.67444 6189 ft 246 kts 121°
2026-02-21 07:15 44.52806 20.69475 6073 ft 246 kts 121°
2026-02-21 07:15 44.51893 20.71502 5971 ft 246 kts 120°
2026-02-21 07:15 44.51326 20.73721 5860 ft 243 kts 93°
2026-02-21 07:15 44.51607 20.76009 5730 ft 240 kts 64°
2026-02-21 07:16 44.52648 20.77797 5624 ft 239 kts 36°
2026-02-21 07:16 44.54056 20.79049 5515 ft 239 kts 32°
2026-02-21 07:16 44.55472 20.80282 5398 ft 240 kts 32°
2026-02-21 07:16 44.56979 20.81264 5281 ft 240 kts 11°
2026-02-21 07:17 44.58631 20.81096 5163 ft 242 kts 339°
2026-02-21 07:17 44.59985 20.79737 5060 ft 243 kts 308°
2026-02-21 07:17 44.60889 20.77733 4956 ft 242 kts 301°
2026-02-21 07:17 44.61812 20.75673 4870 ft 252 kts 302°
2026-02-21 07:18 44.62741 20.73625 4738 ft 245 kts 302°
2026-02-21 07:18 44.63632 20.71651 4604 ft 244 kts 302°
2026-02-21 07:18 44.64580 20.69545 4555 ft 252 kts 302°
2026-02-21 07:18 44.65498 20.67505 4397 ft 244 kts 302°
2026-02-21 07:19 44.66403 20.65490 4305 ft 252 kts 302°
2026-02-21 07:19 44.67338 20.63410 4220 ft 247 kts 301°
2026-02-21 07:19 44.68210 20.61469 4098 ft 229 kts 301°
2026-02-21 07:19 44.69052 20.59590 4017 ft 226 kts 301°
2026-02-21 07:20 44.69889 20.57722 3862 ft 224 kts 301°
2026-02-21 07:20 44.70690 20.55937 3712 ft 211 kts 301°
2026-02-21 07:20 44.71465 20.54205 3555 ft 209 kts 301°
2026-02-21 07:20 44.72215 20.52529 3430 ft 194 kts 301°
2026-02-21 07:21 44.72904 20.50990 3270 ft 179 kts 301°
2026-02-21 07:21 44.73542 20.49562 3171 ft 166 kts 300°
2026-02-21 07:21 44.74154 20.48191 3073 ft 161 kts 300°
2026-02-21 07:21 44.74743 20.46873 2893 ft 158 kts 301°
2026-02-21 07:22 44.75319 20.45581 2719 ft 151 kts 300°
2026-02-21 07:22 44.75857 20.44376 2492 ft 144 kts 300°
2026-02-21 07:22 44.76382 20.43198 2288 ft 140 kts 300°
2026-02-21 07:22 44.76900 20.42037 2091 ft 137 kts 300°
2026-02-21 07:23 44.77401 20.40913 1895 ft 135 kts 301°
2026-02-21 07:23 44.77901 20.39788 1697 ft 135 kts 301°
2026-02-21 07:23 44.78400 20.38668 1505 ft 135 kts 300°
2026-02-21 07:23 44.78896 20.37553 1302 ft 134 kts 301°
2026-02-21 07:24 44.79391 20.36441 1090 ft 134 kts 300°
2026-02-21 07:24 44.79883 20.35336 866 ft 133 kts 299°
2026-02-21 07:24 44.80370 20.34233 692 ft 132 kts 299°
2026-02-21 07:24 44.80855 20.33132 501 ft 132 kts 299°
2026-02-21 07:25 44.81341 20.32040 321 ft 132 kts 299°
2026-02-21 07:25 44.81771 20.31067 306 ft 97 kts 302°
2026-02-21 07:25 44.82043 20.30461 305 ft 55 kts 302°
2026-02-21 07:25 44.82151 20.30207 304 ft 32 kts 294°
2026-02-21 07:26 44.82171 20.29867 307 ft 22 kts 271°
2026-02-21 07:26 44.82155 20.29709 310 ft 12 kts 238°
2026-02-21 07:26 44.82112 20.29658 308 ft 13 kts 214°
2026-02-21 07:26 44.82002 20.29557 307 ft 16 kts 212°
2026-02-21 07:27 44.81953 20.29509 308 ft 9 kts 233°
2026-02-21 07:27 44.81990 20.29403 307 ft 11 kts 307°
2026-02-21 07:27 44.82009 20.29361 308 ft 1 kts 303°
2026-02-21 07:27 44.82013 20.29352 308 ft 1 kts 303°
2026-02-21 07:28 44.82015 20.29347 309 ft 0 kts 303°